Flight Track Log - Related Links

Times and Time Zones

All times are in EDT time to prevent confusion due to time zone crossing. See the DAL1636 flight status page for this flight to view local times or setup timezone preferences in your user account.

Time Position Orientation Groundspeed Altitude Reporting Facility
EDT Latitude Longitude Course Direction KTS MPH feet Rate Location/Type
Mon 08:38:25 PM 42.2036 -83.3556 185° South 149 171 1,500  Level Cleveland Center
Mon 08:39:26 PM 42.1494 -83.3614 185° South 226 260 3,600 2,390 Climbing Cleveland Center
Mon 08:40:28 PM 42.0808 -83.3528 175° South 288 331 6,400 2,737 Climbing Cleveland Center
Mon 08:41:20 PM 42.0561 -83.2483 108° East 342 394 8,800 2,124 Climbing Cleveland Center
Mon 08:42:21 PM 42.0633 -83.1144 86° East 350 403 10,400 2,033 Climbing Cleveland Center
Mon 08:43:21 PM 42.0689 -82.9553 87° East 377 434 12,900 2,750 Climbing Cleveland Center
Mon 08:44:21 PM 42.0761 -82.7931 87° East 408 470 15,900 2,600 Climbing Cleveland Center
Mon 08:45:21 PM 42.0836 -82.6256 86° East 432 497 18,100 2,400 Climbing Cleveland Center
Mon 08:46:21 PM 42.0822 -82.4519 91° East 450 518 20,700 1,950 Climbing Cleveland Center
Mon 08:47:21 PM 42.0581 -82.2694 100° East 467 537 22,000 1,361 Climbing Cleveland Center
Mon 08:48:20 PM 42.0250 -82.1036 105° East 482 555 23,400 1,600 Climbing Cleveland Center
Mon 08:49:21 PM 41.9264 -81.9758 136° Southeast 475 547 25,200 1,900 Climbing Cleveland Center
Mon 08:50:20 PM 41.8153 -81.8647 143° Southeast 492 566 27,200 2,118 Climbing Cleveland Center
Mon 08:51:20 PM 41.7039 -81.7594 145° Southeast 498 573 29,400 1,785 Climbing Cleveland Center
Mon 08:52:21 PM 41.5797 -81.6408 144° Southeast 493 567 30,800 1,686 Climbing Cleveland Center
Mon 08:53:21 PM 41.4703 -81.5364 144° Southeast 488 562 32,800 1,100 Climbing Cleveland Center
Mon 08:54:21 PM 41.3772 -81.4519 146° Southeast 483 556 33,000 100 Climbing Cleveland Center
Mon 08:55:21 PM 41.2464 -81.3867 159° South 458 527 33,000  Level Cleveland Center
Mon 08:56:21 PM 41.1383 -81.3386 161° South 458 527 33,000  Level Cleveland Center
Mon 08:57:21 PM 41.0178 -81.2794 160° South 458 527 33,000  Level Cleveland Center
Mon 08:58:21 PM 40.9014 -81.2231 160° South 458 527 33,000  Level Cleveland Center
Mon 08:59:21 PM 40.7847 -81.1700 161° South 451 519 33,000  Level Cleveland Center
Mon 09:00:21 PM 40.6664 -81.1142 160° South 451 519 33,000  Level Cleveland Center
Mon 09:01:21 PM 40.5561 -81.0422 154° Southeast 446 513 33,000  Level Cleveland Center
Mon 09:02:21 PM 40.4669 -80.9161 133° Southeast 441 507 33,000  Level Cleveland Center
Mon 09:03:21 PM 40.3775 -80.7875 132° Southeast 458 527 33,000  Level Cleveland Center
Mon 09:04:21 PM 40.2922 -80.6619 132° Southeast 464 534 33,000  Level Cleveland Center
Mon 09:05:21 PM 40.2028 -80.5314 132° Southeast 470 541 33,000  Level Cleveland Center
Mon 09:06:21 PM 40.1150 -80.4067 133° Southeast 470 541 33,000  Level Cleveland Center
Mon 09:07:21 PM 40.0375 -80.2631 125° Southeast 475 547 33,000  Level Cleveland Center
Mon 09:09:38 PM 39.9183 -79.8875 112° Southeast 488 562 33,000  Level Washington Center
Mon 09:10:38 PM 39.8678 -79.7250 112° Southeast 488 562 33,000 -400 Level Washington Center
Mon 09:11:38 PM 39.8150 -79.5625 113° Southeast 488 562 32,200 -1,700 Descending Washington Center
Mon 09:12:38 PM 39.7619 -79.3978 113° Southeast 488 562 29,600 -2,800 Descending Washington Center
Mon 09:13:38 PM 39.7108 -79.2358 112° Southeast 488 562 26,600 -2,550 Descending Washington Center
Mon 09:14:38 PM 39.6614 -79.0742 112° Southeast 483 556 24,500 -2,050 Descending Washington Center
Mon 09:15:38 PM 39.6142 -78.8969 109° East 478 550 22,500 -2,050 Descending Washington Center
Mon 09:16:38 PM 39.5789 -78.7417 106° East 473 544 20,400 -1,700 Descending Washington Center
Mon 09:17:38 PM 39.5472 -78.5950 106° East 449 517 19,100 -1,300 Descending Washington Center
Mon 09:18:38 PM 39.5172 -78.4486 105° East 430 495 17,800 -1,350 Descending Washington Center
Mon 09:19:38 PM 39.4853 -78.3019 106° East 425 489 16,400 -1,250 Descending Washington Center
Mon 09:20:38 PM 39.4547 -78.1719 107° East 425 489 15,300 -750 Descending Washington Center
Mon 09:21:38 PM 39.4267 -78.0258 104° East 425 489 14,900 -650 Descending Washington Center
Mon 09:22:38 PM 39.4275 -77.8753 90° East 414 476 14,000 -900 Descending Washington Center
Mon 09:23:38 PM 39.4322 -77.7303 88° East 408 470 13,100 -900 Descending Washington Center
Mon 09:24:38 PM 39.4367 -77.5881 88° East 403 464 12,200 -900 Descending Washington Center
Mon 09:25:38 PM 39.4431 -77.4539 86° East 385 443 11,300 -550 Descending Washington Center
Mon 09:26:38 PM 39.4489 -77.3358 86° East 354 407 11,100 -100 Descending Washington Center
Mon 09:27:38 PM 39.4631 -77.2206 81° East 331 381 11,100 -78 Level Washington Center
Mon 09:27:55 PM 39.4667 -77.1667 85° East 332 382 11,000 -78 Descending Potomac TRACON
Mon 09:28:55 PM 39.4833 -77.0500 79° East 333 383 11,000 -579 Level Potomac TRACON
Mon 09:29:49 PM 39.4833 -76.9500 90° East 329 379 9,900 -1,400 Descending Potomac TRACON
Mon 09:30:55 PM 39.4833 -76.8333 90° East 314 361 8,200 -1,600 Descending Potomac TRACON
Mon 09:31:49 PM 39.4333 -76.7667 134° Southeast 281 323 6,700 -1,526 Descending Potomac TRACON
Mon 09:32:49 PM 39.3667 -76.8000 201° Southwest 230 265 5,300 -1,190 Descending Potomac TRACON
Mon 09:33:55 PM 39.3167 -76.8333 207° Southwest 196 226 4,200 -1,150 Descending Potomac TRACON
Mon 09:34:49 PM 39.2667 -76.8667 207° Southwest 191 220 3,000 -1,158 Descending Potomac TRACON
Mon 09:35:49 PM 39.2167 -76.8500 166° South 180 207 2,000 -526 Descending Potomac TRACON
Mon 09:36:43 PM 39.2000 -76.8000 113° Southeast 183 211 2,000 -500 Level Potomac TRACON
Mon 09:37:49 PM 39.1833 -76.7500 113° Southeast 161 185 1,000 -909 Descending Potomac TRACON
Mon 09:39:00 PM 39.1667 -76.6667 142° Southeast  Level FlightAware Approximate
Mon 09:46:00 PM 39.1754 -76.6683 142° Southeast  Level Estimated
Mon 09:47:00 PM 39.1754 -76.6683 142° Southeast  Level Estimated
Mon 09:48:00 PM 39.1754 -76.6683 142° Southeast  Level Estimated

Login

Don't have an account? Register now (free) for customized features, flight alerts, and more!